| time (UTC) | temp C | wind direction | speed KPH | gust KPH | rain 1hr cm | rain 24hr cm | rain mn cm | humidity % | barometer mb |
| 20260902082515 | 25 | 308 | 0.0 | 3.2 | 0.00 | 0.00 | 0.00 | 100 | 1016.0 |
| 20260902082014 | 25 | 309 | 0.0 | 4.8 | 0.00 | 0.00 | 0.00 | 100 | 1016.1 |
| 20260902081513 | 25 | 309 | 0.0 | 4.8 | 0.00 | 0.00 | 0.00 | 100 | 1016.1 |
| 20260902081013 | 25 | 317 | 0.0 | 0.0 | 0.00 | 0.00 | 0.00 | 100 | 1016.0 |
| 20260902080513 | 25 | 317 | 0.0 | 0.0 | 0.00 | 0.00 | 0.00 | 100 | 1016.2 |
| 20260902080013 | 25 | 317 | 0.0 | 0.0 | 0.00 | 0.00 | 0.00 | 100 | 1016.2 |
| 20260902075514 | 25 | 317 | 0.0 | 0.0 | 0.00 | 0.00 | 0.00 | 100 | 1016.2 |
| 20260902075013 | 25 | 323 | 0.0 | 0.0 | 0.00 | 0.00 | 0.00 | 100 | 1016.0 |
| 20260902074512 | 25 | 313 | 0.0 | 0.0 | 0.00 | 0.00 | 0.00 | 100 | 1016.0 |
| 20260902074012 | 25 | 313 | 0.0 | 0.0 | 0.00 | 0.00 | 0.00 | 100 | 1016.1 |
| 20260902073511 | 25 | 312 | 0.0 | 0.0 | 0.00 | 0.00 | 0.00 | 100 | 1016.2 |
| 20260902073011 | 25 | 309 | 0.0 | 0.0 | 0.00 | 0.00 | 0.00 | 100 | 1016.1 |
| 20260902072511 | 25 | 308 | 0.0 | 0.0 | 0.00 | 0.00 | 0.00 | 100 | 1016.2 |
| 20260902072010 | 25 | 306 | 0.0 | 0.0 | 0.00 | 0.00 | 0.00 | 100 | 1016.1 |
| 20260902071516 | 25 | 306 | 0.0 | 0.0 | 0.00 | 0.00 | 0.00 | 100 | 1016.2 |
| 20260902071009 | 25 | 306 | 0.0 | 0.0 | 0.00 | 0.00 | 0.00 | 100 | 1016.3 |
| 20260902070510 | 25 | 307 | 0.0 | 0.0 | 0.00 | 0.00 | 0.00 | 100 | 1016.3 |
| 20260902070010 | 26 | 307 | 0.0 | 0.0 | 0.00 | 0.00 | 0.00 | 100 | 1016.3 |
| 20260902065510 | 25 | 308 | 0.0 | 0.0 | 0.00 | 0.00 | 0.00 | 100 | 1016.3 |
| 20260902065009 | 25 | 290 | 0.0 | 0.0 | 0.00 | 0.00 | 0.00 | 100 | 1016.3 |
| 20260902064510 | 25 | 289 | 0.0 | 0.0 | 0.00 | 0.00 | 0.00 | 100 | 1016.3 |
| 20260902064007 | 25 | 288 | 0.0 | 0.0 | 0.00 | 0.00 | 0.00 | 100 | 1016.3 |
| 20260902063507 | 26 | 289 | 0.0 | 0.0 | 0.00 | 0.00 | 0.00 | 100 | 1016.4 |
| 20260902063007 | 25 | 289 | 0.0 | 0.0 | 0.00 | 0.00 | 0.00 | 100 | 1016.5 |
| 20260902062507 | 26 | 325 | 0.0 | 0.0 | 0.00 | 0.00 | 0.00 | 100 | 1016.5 |
| 20260902062005 | 26 | 325 | 0.0 | 0.0 | 0.00 | 0.00 | 0.00 | 100 | 1016.4 |
| 20260902061505 | 26 | 325 | 0.0 | 0.0 | 0.00 | 0.00 | 0.00 | 100 | 1016.5 |
| 20260902061008 | 26 | 325 | 0.0 | 0.0 | 0.00 | 0.00 | 0.00 | 100 | 1016.6 |
| 20260902060505 | 26 | 325 | 0.0 | 0.0 | 0.00 | 0.00 | 0.00 | 100 | 1016.6 |
| 20260902060005 | 26 | 327 | 0.0 | 0.0 | 0.00 | 0.00 | 0.00 | 100 | 1016.7 |
| 20260902055504 | 26 | 327 | 0.0 | 0.0 | 0.00 | 0.00 | 0.00 | 100 | 1016.6 |
| 20260902055004 | 26 | 327 | 0.0 | 0.0 | 0.00 | 0.00 | 0.00 | 100 | 1016.5 |
| 20260902054504 | 26 | 327 | 0.0 | 0.0 | 0.00 | 0.03 | 0.00 | 100 | 1016.5 |
| 20260902054003 | 26 | 328 | 0.0 | 0.0 | 0.00 | 0.03 | 0.00 | 100 | 1016.5 |
| 20260902053503 | 26 | 328 | 0.0 | 0.0 | 0.00 | 0.03 | 0.00 | 100 | 1016.7 |
| 20260902053004 | 26 | 328 | 0.0 | 0.0 | 0.00 | 0.03 | 0.00 | 100 | 1016.6 |
| 20260902052504 | 26 | 329 | 0.0 | 0.0 | 0.00 | 0.03 | 0.00 | 100 | 1016.6 |
| 20260902052003 | 26 | 329 | 0.0 | 0.0 | 0.00 | 0.03 | 0.00 | 100 | 1016.5 |
| 20260902051502 | 26 | 329 | 0.0 | 0.0 | 0.00 | 0.03 | 0.00 | 100 | 1016.6 |
| 20260902051004 | 26 | 329 | 0.0 | 0.0 | 0.00 | 0.03 | 0.00 | 100 | 1016.6 |
| 20260902050503 | 26 | 329 | 0.0 | 0.0 | 0.00 | 0.03 | 0.00 | 100 | 1016.7 |
| 20260902050107 | 26 | 329 | 0.0 | 0.0 | 0.00 | 0.03 | 0.00 | 100 | 1016.8 |
| 20260902050001 | 26 | 329 | 0.0 | 0.0 | 0.00 | 0.03 | 0.00 | 100 | 1016.8 |
| 20260902045559 | 26 | 329 | 0.0 | 0.0 | 0.00 | 0.03 | 0.00 | 100 | 1016.7 |
| 20260902045101 | 26 | 329 | 0.0 | 0.0 | 0.00 | 0.03 | 0.00 | 100 | 1016.9 |
| 20260902044602 | 26 | 329 | 0.0 | 0.0 | 0.00 | 0.03 | 0.00 | 100 | 1016.9 |
| 20260902044100 | 26 | 329 | 0.0 | 0.0 | 0.00 | 0.03 | 0.00 | 100 | 1016.8 |
| 20260902043559 | 26 | 329 | 0.0 | 0.0 | 0.00 | 0.03 | 0.00 | 100 | 1016.9 |
| 20260902043059 | 26 | 329 | 0.0 | 0.0 | 0.00 | 0.03 | 0.00 | 100 | 1016.8 |
| 20260902042601 | 26 | 329 | 0.0 | 0.0 | 0.00 | 0.03 | 0.00 | 100 | 1016.9 |
| 20260902042058 | 26 | 329 | 0.0 | 0.0 | 0.00 | 0.03 | 0.00 | 100 | 1016.9 |
| 20260902041559 | 26 | 328 | 0.0 | 0.0 | 0.00 | 0.03 | 0.00 | 100 | 1016.8 |
| 20260902041057 | 26 | 329 | 0.0 | 3.2 | 0.00 | 0.03 | 0.00 | 100 | 1016.9 |
| 20260902040601 | 26 | 329 | 0.0 | 4.8 | 0.00 | 0.03 | 0.00 | 100 | 1016.8 |
| 20260902040057 | 26 | 329 | 0.0 | 4.8 | 0.00 | 0.03 | 0.00 | 100 | 1016.9 |
| 20260902035556 | 26 | 355 | 0.0 | 0.0 | 0.00 | 0.03 | 0.00 | 100 | 1017.0 |
| 20260902035055 | 26 | 355 | 0.0 | 0.0 | 0.00 | 0.03 | 0.00 | 100 | 1017.1 |
| 20260902034557 | 26 | 355 | 0.0 | 0.0 | 0.00 | 0.03 | 0.03 | 100 | 1017.2 |
| 20260902034055 | 26 | 355 | 0.0 | 0.0 | 0.00 | 0.03 | 0.03 | 100 | 1017.2 |
| 20260902033556 | 26 | 355 | 0.0 | 0.0 | 0.00 | 0.03 | 0.03 | 100 | 1017.3 |
| 20260902033056 | 26 | 355 | 0.0 | 0.0 | 0.00 | 0.03 | 0.03 | 100 | 1017.4 |
| 20260902032555 | 26 | 355 | 0.0 | 0.0 | 0.00 | 0.03 | 0.03 | 100 | 1017.2 |
| 20260902032054 | 26 | 355 | 0.0 | 0.0 | 0.00 | 0.03 | 0.03 | 100 | 1017.2 |
| 20260902031605 | 26 | 355 | 0.0 | 0.0 | 0.00 | 0.03 | 0.03 | 100 | 1017.3 |
| 20260902031054 | 26 | 355 | 0.0 | 0.0 | 0.00 | 0.03 | 0.03 | 100 | 1017.4 |
| 20260902030554 | 26 | 355 | 0.0 | 0.0 | 0.00 | 0.03 | 0.03 | 100 | 1017.5 |
| 20260902030053 | 26 | 355 | 0.0 | 3.2 | 0.00 | 0.03 | 0.03 | 100 | 1017.5 |
| 20260902025553 | 26 | 355 | 0.0 | 3.2 | 0.00 | 0.03 | 0.03 | 100 | 1017.6 |
| 20260902025054 | 26 | 355 | 0.0 | 0.0 | 0.00 | 0.03 | 0.03 | 100 | 1017.5 |
| 20260902024558 | 26 | 355 | 0.0 | 3.2 | 0.00 | 0.03 | 0.03 | 100 | 1017.5 |
| 20260902024053 | 26 | 355 | 0.0 | 3.2 | 0.00 | 0.03 | 0.03 | 100 | 1017.6 |
| 20260902023552 | 26 | 355 | 0.0 | 0.0 | 0.00 | 0.03 | 0.03 | 100 | 1017.6 |
| 20260902023055 | 26 | 355 | 0.0 | 1.6 | 0.00 | 0.03 | 0.03 | 100 | 1017.6 |
| 20260902022552 | 26 | 355 | 0.0 | 1.6 | 0.00 | 0.03 | 0.03 | 100 | 1017.6 |
| 20260902022051 | 26 | 355 | 0.0 | 0.0 | 0.00 | 0.03 | 0.03 | 100 | 1017.6 |
| 20260902021606 | 26 | 355 | 0.0 | 1.6 | 0.00 | 0.03 | 0.03 | 100 | 1017.7 |
| 20260902021055 | 26 | 355 | 0.0 | 1.6 | 0.00 | 0.03 | 0.03 | 100 | 1017.5 |
| 20260902020552 | 26 | 355 | 0.0 | 0.0 | 0.00 | 0.03 | 0.03 | 100 | 1017.4 |
| 20260902015554 | 26 | 355 | 0.0 | 1.6 | 0.00 | 0.03 | 0.03 | 100 | 1017.4 |
| 20260902015053 | 26 | 355 | 0.0 | 0.0 | 0.00 | 0.03 | 0.03 | 100 | 1017.4 |
| 20260902014551 | 26 | 355 | 0.0 | 1.6 | 0.00 | 0.03 | 0.03 | 100 | 1017.3 |
| 20260902014051 | 26 | 355 | 0.0 | 1.6 | 0.00 | 0.03 | 0.03 | 100 | 1017.4 |
| 20260902013551 | 26 | 355 | 0.0 | 3.2 | 0.00 | 0.03 | 0.03 | 100 | 1017.4 |
| 20260902013051 | 26 | 355 | 0.0 | 4.8 | 0.00 | 0.03 | 0.03 | 100 | 1017.4 |
| 20260902012550 | 26 | 355 | 0.0 | 4.8 | 0.00 | 0.03 | 0.03 | 100 | 1017.3 |
| 20260902012050 | 26 | 355 | 1.6 | 4.8 | 0.00 | 0.03 | 0.03 | 100 | 1017.3 |
| 20260902011550 | 26 | 355 | 0.0 | 4.8 | 0.00 | 0.03 | 0.03 | 100 | 1017.1 |
| 20260902011050 | 26 | 355 | 1.6 | 4.8 | 0.00 | 0.03 | 0.03 | 100 | 1017.0 |
| 20260902010549 | 26 | 347 | 0.0 | 4.8 | 0.00 | 0.03 | 0.03 | 100 | 1017.0 |
| 20260902010049 | 26 | 345 | 0.0 | 3.2 | 0.00 | 0.03 | 0.03 | 100 | 1016.9 |
| 20260902005549 | 26 | 334 | 0.0 | 4.8 | 0.00 | 0.03 | 0.03 | 100 | 1016.9 |
| 20260902005050 | 26 | 327 | 0.0 | 6.4 | 0.00 | 0.03 | 0.03 | 100 | 1016.8 |
| 20260902004549 | 26 | 360 | 0.0 | 6.4 | 0.00 | 0.03 | 0.03 | 100 | 1016.8 |
| 20260902004048 | 26 | 360 | 1.6 | 8.0 | 0.00 | 0.03 | 0.03 | 100 | 1016.8 |
| 20260902003547 | 26 | 355 | 3.2 | 8.0 | 0.00 | 0.03 | 0.03 | 100 | 1016.9 |
| 20260902003048 | 27 | 346 | 1.6 | 6.4 | 0.00 | 0.03 | 0.03 | 100 | 1017.0 |
| 20260902002547 | 27 | 360 | 3.2 | 6.4 | 0.00 | 0.03 | 0.03 | 100 | 1017.0 |
| 20260902002050 | 27 | 323 | 0.0 | 6.4 | 0.00 | 0.03 | 0.03 | 100 | 1017.0 |
| 20260902001550 | 27 | 355 | 1.6 | 4.8 | 0.00 | 0.03 | 0.03 | 100 | 1017.1 |
| 20260902001048 | 27 | 325 | 1.6 | 4.8 | 0.00 | 0.03 | 0.03 | 100 | 1017.1 |
| 20260902000550 | 27 | 134 | 0.0 | 1.6 | 0.00 | 0.03 | 0.03 | 100 | 1017.0 |
| 20260902000047 | 27 | 134 | 0.0 | 1.6 | 0.00 | 0.03 | 0.03 | 100 | 1017.0 |
| 20260901235547 | 27 | 134 | 0.0 | 1.6 | 0.00 | 0.03 | 0.03 | 100 | 1017.0 |
| 20260901235045 | 27 | 134 | 0.0 | 1.6 | 0.00 | 0.03 | 0.03 | 100 | 1017.0 |
| 20260901234548 | 27 | 134 | 0.0 | 0.0 | 0.00 | 0.03 | 0.03 | 100 | 1017.0 |
| 20260901234047 | 27 | 134 | 0.0 | 1.6 | 0.00 | 0.03 | 0.03 | 100 | 1016.9 |
| 20260901233546 | 27 | 134 | 0.0 | 1.6 | 0.00 | 0.03 | 0.03 | 100 | 1016.9 |
| 20260901233049 | 27 | 134 | 0.0 | 1.6 | 0.00 | 0.03 | 0.03 | 100 | 1016.9 |
| 20260901232545 | 27 | 132 | 0.0 | 6.4 | 0.00 | 0.03 | 0.03 | 100 | 1016.9 |
| 20260901232045 | 27 | 132 | 1.6 | 6.4 | 0.00 | 0.03 | 0.03 | 100 | 1016.9 |
| 20260901231546 | 27 | 133 | 1.6 | 6.4 | 0.00 | 0.03 | 0.03 | 100 | 1016.8 |
| 20260901231045 | 27 | 132 | 3.2 | 9.7 | 0.00 | 0.03 | 0.03 | 100 | 1016.9 |
| 20260901230545 | 27 | 134 | 3.2 | 9.7 | 0.00 | 0.03 | 0.03 | 100 | 1016.9 |
| 20260901230100 | 27 | 130 | 4.8 | 9.7 | 0.00 | 0.03 | 0.03 | 100 | 1016.7 |
| 20260901225544 | 27 | 123 | 0.0 | 14.5 | 0.00 | 0.03 | 0.03 | 100 | 1016.6 |
| 20260901225044 | 28 | 106 | 1.6 | 11.3 | 0.00 | 0.03 | 0.03 | 100 | 1016.7 |
| 20260901224545 | 28 | 119 | 3.2 | 11.3 | 0.00 | 0.03 | 0.03 | 100 | 1016.7 |
| 20260901224044 | 28 | 128 | 0.0 | 9.7 | 0.00 | 0.03 | 0.03 | 100 | 1016.6 |
| 20260901223544 | 28 | 57 | 0.0 | 6.4 | 0.00 | 0.03 | 0.03 | 100 | 1016.6 |
| 20260901223053 | 28 | 30 | 1.6 | 6.4 | 0.00 | 0.03 | 0.03 | 100 | 1016.6 |
| 20260901222543 | 28 | 9 | 0.0 | 8.0 | 0.00 | 0.03 | 0.03 | 100 | 1016.6 |
| 20260901222046 | 28 | 5 | 0.0 | 8.0 | 0.00 | 0.03 | 0.03 | 100 | 1016.7 |
| 20260901221544 | 28 | 50 | 1.6 | 8.0 | 0.00 | 0.03 | 0.03 | 100 | 1016.7 |
| 20260901221043 | 28 | 360 | 1.6 | 6.4 | 0.00 | 0.03 | 0.03 | 100 | 1016.7 |
| 20260901220542 | 28 | 110 | 0.0 | 6.4 | 0.00 | 0.03 | 0.03 | 100 | 1016.7 |
| 20260901220104 | 28 | 63 | 0.0 | 8.0 | 0.00 | 0.03 | 0.03 | 100 | 1016.7 |
| 20260901215543 | 28 | 46 | 0.0 | 12.9 | 0.00 | 0.03 | 0.03 | 100 | 1016.5 |
| 20260901215043 | 28 | 107 | 1.6 | 12.9 | 0.00 | 0.03 | 0.03 | 100 | 1016.5 |
| 20260901214541 | 28 | 92 | 1.6 | 11.3 | 0.00 | 0.03 | 0.03 | 100 | 1016.4 |
| 20260901214044 | 29 | 31 | 3.2 | 19.3 | 0.00 | 0.03 | 0.03 | 100 | 1016.3 |
| 20260901213543 | 29 | 360 | 4.8 | 19.3 | 0.00 | 0.03 | 0.03 | 100 | 1016.2 |
| 20260901213046 | 29 | 360 | 6.4 | 17.7 | 0.00 | 0.03 | 0.03 | 100 | 1016.2 |
| 20260901212541 | 29 | 16 | 6.4 | 16.1 | 0.00 | 0.03 | 0.03 | 100 | 1016.2 |
| 20260901212040 | 29 | 360 | 1.6 | 16.1 | 0.00 | 0.03 | 0.03 | 100 | 1016.2 |
| 20260901211540 | 30 | 45 | 6.4 | 16.1 | 0.00 | 0.03 | 0.03 | 100 | 1016.2 |
| 20260901211041 | 30 | 341 | 1.6 | 14.5 | 0.00 | 0.03 | 0.03 | 100 | 1016.2 |
| 20260901210539 | 30 | 347 | 3.2 | 12.9 | 0.00 | 0.03 | 0.03 | 100 | 1016.3 |
| 20260901210039 | 30 | 5 | 1.6 | 14.5 | 0.00 | 0.03 | 0.03 | 100 | 1016.4 |
| 20260901205539 | 30 | 339 | 4.8 | 14.5 | 0.00 | 0.03 | 0.03 | 100 | 1016.4 |
| 20260901205039 | 30 | 21 | 1.6 | 16.1 | 0.00 | 0.03 | 0.03 | 100 | 1016.2 |
| 20260901204541 | 30 | 101 | 4.8 | 16.1 | 0.00 | 0.05 | 0.03 | 100 | 1016.2 |
| 20260901204041 | 31 | 36 | 6.4 | 17.7 | 0.00 | 0.05 | 0.03 | 100 | 1016.2 |
| 20260901203537 | 31 | 9 | 3.2 | 17.7 | 0.00 | 0.05 | 0.03 | 100 | 1016.2 |
| 20260901203039 | 31 | 5 | 6.4 | 17.7 | 0.00 | 0.05 | 0.03 | 100 | 1016.3 |
| 20260901202533 | 31 | 11 | 4.8 | 19.3 | 0.00 | 0.05 | 0.03 | 100 | 1016.4 |
| 20260901202032 | 31 | 24 | 8.0 | 19.3 | 0.00 | 0.05 | 0.03 | 100 | 1016.3 |
| 20260901201531 | 31 | 33 | 4.8 | 17.7 | 0.00 | 0.05 | 0.03 | 100 | 1016.3 |
| 20260901201030 | 30 | 23 | 3.2 | 12.9 | 0.00 | 0.05 | 0.03 | 100 | 1016.4 |
| 20260901200530 | 30 | 82 | 0.0 | 12.9 | 0.00 | 0.05 | 0.03 | 100 | 1016.5 |
| 20260901200029 | 30 | 12 | 6.4 | 16.1 | 0.00 | 0.05 | 0.03 | 100 | 1016.5 |
| 20260901195529 | 30 | 15 | 3.2 | 17.7 | 0.00 | 0.05 | 0.03 | 100 | 1016.7 |
| 20260901195033 | 30 | 30 | 8.0 | 17.7 | 0.00 | 0.05 | 0.03 | 100 | 1016.8 |
| 20260901194533 | 31 | 360 | 4.8 | 14.5 | 0.00 | 0.05 | 0.03 | 100 | 1016.8 |
| 20260901194028 | 30 | 349 | 1.6 | 14.5 | 0.00 | 0.05 | 0.03 | 100 | 1016.9 |
| 20260901193528 | 30 | 28 | 4.8 | 19.3 | 0.00 | 0.05 | 0.03 | 100 | 1016.7 |
| 20260901193032 | 31 | 342 | 6.4 | 19.3 | 0.00 | 0.05 | 0.03 | 100 | 1016.8 |
| 20260901192525 | 31 | 47 | 6.4 | 17.7 | 0.00 | 0.05 | 0.03 | 100 | 1016.8 |
| 20260901192023 | 31 | 28 | 6.4 | 17.7 | 0.00 | 0.05 | 0.03 | 100 | 1016.7 |
| 20260901191523 | 30 | 346 | 6.4 | 16.1 | 0.00 | 0.05 | 0.03 | 100 | 1016.8 |
| 20260901191024 | 30 | 355 | 4.8 | 16.1 | 0.00 | 0.05 | 0.03 | 100 | 1016.8 |
| 20260901190526 | 30 | 53 | 3.2 | 19.3 | 0.00 | 0.05 | 0.03 | 100 | 1017.0 |
| 20260901190023 | 30 | 324 | 8.0 | 19.3 | 0.00 | 0.05 | 0.03 | 100 | 1016.8 |
| 20260901185523 | 30 | 77 | 3.2 | 16.1 | 0.00 | 0.05 | 0.03 | 100 | 1016.9 |
| 20260901185022 | 30 | 17 | 8.0 | 16.1 | 0.00 | 0.05 | 0.03 | 100 | 1016.9 |
| 20260901184538 | 31 | 261 | 6.4 | 17.7 | 0.00 | 0.05 | 0.03 | 100 | 1017.0 |
| 20260901184025 | 31 | 5 | 6.4 | 19.3 | 0.00 | 0.05 | 0.03 | 100 | 1017.1 |
| 20260901183523 | 32 | 331 | 8.0 | 19.3 | 0.00 | 0.05 | 0.03 | 100 | 1017.1 |
| 20260901183020 | 32 | 45 | 6.4 | 17.7 | 0.00 | 0.05 | 0.03 | 100 | 1017.2 |
| 20260901182521 | 32 | 28 | 4.8 | 19.3 | 0.00 | 0.05 | 0.03 | 100 | 1017.3 |
| 20260901182017 | 32 | 9 | 4.8 | 19.3 | 0.00 | 0.05 | 0.03 | 100 | 1017.5 |
| 20260901181526 | 32 | 38 | 3.2 | 25.7 | 0.00 | 0.05 | 0.03 | 100 | 1017.6 |
| 20260901181016 | 31 | 17 | 9.7 | 25.7 | 0.00 | 0.05 | 0.03 | 100 | 1017.6 |
| 20260901180516 | 31 | 9 | 6.4 | 19.3 | 0.00 | 0.05 | 0.03 | 100 | 1017.6 |
| 20260901180017 | 32 | 5 | 6.4 | 19.3 | 0.00 | 0.05 | 0.03 | 100 | 1017.6 |
| 20260901175515 | 32 | 26 | 8.0 | 19.3 | 0.00 | 0.05 | 0.03 | 100 | 1017.4 |
| 20260901175013 | 31 | 227 | 6.4 | 22.5 | 0.00 | 0.05 | 0.03 | 100 | 1017.4 |
| 20260901174534 | 31 | 341 | 11.3 | 27.4 | 0.00 | 0.05 | 0.03 | 100 | 1017.4 |
| 20260901174010 | 31 | 17 | 8.0 | 27.4 | 0.00 | 0.05 | 0.03 | 100 | 1017.3 |
| 20260901173509 | 31 | 63 | 11.3 | 24.1 | 0.00 | 0.05 | 0.03 | 100 | 1017.4 |
| 20260901173007 | 31 | 29 | 8.0 | 17.7 | 0.00 | 0.05 | 0.03 | 100 | 1017.6 |
| 20260901172510 | 31 | 107 | 1.6 | 16.1 | 0.00 | 0.05 | 0.03 | 100 | 1017.8 |
| 20260901172004 | 31 | 79 | 1.6 | 16.1 | 0.00 | 0.05 | 0.03 | 100 | 1017.8 |
| 20260901171502 | 31 | 126 | 4.8 | 20.9 | 0.00 | 0.05 | 0.03 | 100 | 1018.0 |
| 20260901171001 | 31 | 67 | 6.4 | 20.9 | 0.00 | 0.05 | 0.03 | 100 | 1018.0 |
| 20260901170600 | 31 | 360 | 6.4 | 19.3 | 0.00 | 0.05 | 0.03 | 100 | 1018.1 |
| 20260901170101 | 31 | 11 | 9.7 | 19.3 | 0.00 | 0.05 | 0.03 | 100 | 1018.1 |
| 20260901165556 | 31 | 56 | 6.4 | 19.3 | 0.00 | 0.05 | 0.03 | 100 | 1018.1 |
| 20260901165058 | 31 | 102 | 3.2 | 20.9 | 0.00 | 0.05 | 0.03 | 100 | 1017.9 |
| 20260901164556 | 31 | 355 | 8.0 | 20.9 | 0.00 | 0.05 | 0.03 | 100 | 1018.0 |
| 20260901164054 | 31 | 347 | 9.7 | 20.9 | 0.00 | 0.05 | 0.03 | 100 | 1018.1 |
| 20260901163551 | 31 | 112 | 1.6 | 14.5 | 0.00 | 0.05 | 0.03 | 100 | 1018.1 |
| 20260901163049 | 31 | 21 | 3.2 | 16.1 | 0.00 | 0.05 | 0.03 | 100 | 1018.1 |
| 20260901162548 | 31 | 9 | 4.8 | 16.1 | 0.00 | 0.05 | 0.03 | 100 | 1018.1 |
| 20260901162047 | 31 | 346 | 4.8 | 14.5 | 0.00 | 0.05 | 0.03 | 100 | 1018.3 |
| 20260901161602 | 31 | 39 | 4.8 | 16.1 | 0.00 | 0.05 | 0.03 | 100 | 1018.2 |
| 20260901161048 | 31 | 336 | 8.0 | 16.1 | 0.00 | 0.05 | 0.03 | 100 | 1018.2 |
| 20260901160543 | 31 | 38 | 3.2 | 16.1 | 0.00 | 0.05 | 0.03 | 100 | 1018.3 |
| 20260901160104 | 31 | 36 | 6.4 | 17.7 | 0.00 | 0.05 | 0.03 | 100 | 1018.3 |
| 20260901155543 | 31 | 50 | 4.8 | 17.7 | 0.00 | 0.05 | 0.03 | 100 | 1018.3 |
| 20260901155043 | 31 | 325 | 6.4 | 17.7 | 0.00 | 0.05 | 0.03 | 100 | 1018.3 |
| 20260901154541 | 31 | 319 | 3.2 | 19.3 | 0.00 | 0.05 | 0.03 | 100 | 1018.2 |
| 20260901154040 | 31 | 17 | 6.4 | 19.3 | 0.00 | 0.05 | 0.03 | 100 | 1018.3 |
| 20260901153539 | 31 | 31 | 8.0 | 19.3 | 0.00 | 0.05 | 0.03 | 100 | 1018.3 |
| 20260901153037 | 31 | 58 | 4.8 | 14.5 | 0.00 | 0.05 | 0.03 | 100 | 1018.4 |
| 20260901152535 | 31 | 39 | 6.4 | 17.7 | 0.00 | 0.05 | 0.03 | 100 | 1018.5 |
| 20260901152034 | 31 | 44 | 4.8 | 17.7 | 0.00 | 0.05 | 0.03 | 100 | 1018.5 |
| 20260901151532 | 31 | 138 | 1.6 | 12.9 | 0.00 | 0.05 | 0.03 | 100 | 1018.5 |
| 20260901151031 | 31 | 40 | 4.8 | 14.5 | 0.00 | 0.05 | 0.03 | 100 | 1018.4 |
| 20260901150531 | 30 | 5 | 4.8 | 17.7 | 0.00 | 0.05 | 0.03 | 100 | 1018.5 |
| 20260901150028 | 31 | 360 | 8.0 | 17.7 | 0.00 | 0.05 | 0.03 | 100 | 1018.4 |
| 20260901145526 | 31 | 360 | 4.8 | 14.5 | 0.00 | 0.05 | 0.03 | 100 | 1018.4 |
| 20260901145025 | 31 | 5 | 3.2 | 12.9 | 0.00 | 0.05 | 0.03 | 100 | 1018.3 |
| 20260901144523 | 30 | 355 | 1.6 | 12.9 | 0.00 | 0.05 | 0.03 | 100 | 1018.3 |
| 20260901144021 | 30 | 75 | 3.2 | 12.9 | 0.00 | 0.05 | 0.03 | 100 | 1018.3 |
| 20260901143520 | 30 | 28 | 3.2 | 14.5 | 0.00 | 0.05 | 0.03 | 100 | 1018.3 |
| 20260901143021 | 30 | 346 | 1.6 | 14.5 | 0.00 | 0.05 | 0.03 | 100 | 1018.1 |
| 20260901142518 | 30 | 22 | 1.6 | 12.9 | 0.00 | 0.05 | 0.03 | 100 | 1018.1 |
| 20260901142016 | 30 | 323 | 3.2 | 14.5 | 0.00 | 0.05 | 0.03 | 100 | 1018.1 |
| 20260901141514 | 30 | 340 | 4.8 | 14.5 | 0.00 | 0.05 | 0.03 | 100 | 1018.0 |
| 20260901141016 | 29 | 12 | 3.2 | 12.9 | 0.00 | 0.05 | 0.03 | 100 | 1017.9 |
| 20260901140513 | 29 | 360 | 1.6 | 14.5 | 0.00 | 0.05 | 0.03 | 100 | 1017.9 |
| 20260901140012 | 29 | 5 | 4.8 | 14.5 | 0.00 | 0.05 | 0.03 | 100 | 1018.0 |
| 20260901135513 | 29 | 52 | 3.2 | 9.7 | 0.00 | 0.05 | 0.03 | 100 | 1018.0 |
| 20260901135013 | 29 | 10 | 1.6 | 9.7 | 0.00 | 0.05 | 0.03 | 100 | 1017.9 |
| 20260901134513 | 29 | 11 | 1.6 | 9.7 | 0.00 | 0.05 | 0.03 | 100 | 1018.0 |
| 20260901134011 | 29 | 344 | 3.2 | 9.7 | 0.00 | 0.05 | 0.03 | 100 | 1018.0 |
| 20260901133507 | 29 | 16 | 3.2 | 9.7 | 0.00 | 0.05 | 0.03 | 100 | 1018.0 |
| 20260901133006 | 29 | 19 | 3.2 | 9.7 | 0.00 | 0.05 | 0.03 | 100 | 1017.9 |
| 20260901132506 | 28 | 339 | 4.8 | 9.7 | 0.00 | 0.05 | 0.03 | 100 | 1017.9 |
| 20260901132005 | 28 | 336 | 1.6 | 9.7 | 0.00 | 0.05 | 0.03 | 100 | 1017.9 |
| 20260901131503 | 28 | 355 | 3.2 | 11.3 | 0.00 | 0.05 | 0.03 | 100 | 1018.0 |
| 20260901131003 | 28 | 5 | 3.2 | 9.7 | 0.00 | 0.05 | 0.03 | 100 | 1018.0 |
| 20260901130503 | 28 | 11 | 0.0 | 8.0 | 0.00 | 0.05 | 0.03 | 100 | 1018.0 |
| 20260901130001 | 28 | 329 | 1.6 | 8.0 | 0.00 | 0.05 | 0.03 | 100 | 1017.9 |
| 20260901125600 | 28 | 43 | 0.0 | 6.4 | 0.00 | 0.05 | 0.03 | 100 | 1017.8 |
| 20260901125059 | 28 | 340 | 0.0 | 8.0 | 0.00 | 0.05 | 0.03 | 100 | 1017.7 |
| 20260901124605 | 27 | 360 | 0.0 | 8.0 | 0.00 | 0.05 | 0.03 | 100 | 1017.8 |
| 20260901124057 | 27 | 355 | 0.0 | 0.0 | 0.00 | 0.05 | 0.03 | 100 | 1017.7 |
| 20260901123558 | 27 | 336 | 0.0 | 0.0 | 0.00 | 0.05 | 0.03 | 100 | 1017.8 |
| 20260901123114 | 27 | 342 | 0.0 | 0.0 | 0.00 | 0.05 | 0.03 | 100 | 1017.8 |
| 20260901122558 | 26 | 343 | 0.0 | 0.0 | 0.00 | 0.05 | 0.03 | 100 | 1017.7 |
| 20260901122101 | 26 | 342 | 0.0 | 0.0 | 0.00 | 0.05 | 0.03 | 100 | 1017.7 |
| 20260901121559 | 26 | 344 | 0.0 | 0.0 | 0.00 | 0.05 | 0.03 | 100 | 1017.7 |
| 20260901121057 | 26 | 343 | 0.0 | 3.2 | 0.00 | 0.05 | 0.03 | 100 | 1017.6 |
| 20260901120557 | 25 | 345 | 0.0 | 8.0 | 0.00 | 0.05 | 0.03 | 100 | 1017.6 |
| 20260901120101 | 25 | 346 | 0.0 | 8.0 | 0.00 | 0.05 | 0.03 | 100 | 1017.6 |
| 20260901115557 | 25 | 337 | 0.0 | 4.8 | 0.00 | 0.05 | 0.03 | 100 | 1017.5 |
| 20260901115056 | 25 | 338 | 1.6 | 4.8 | 0.00 | 0.05 | 0.03 | 100 | 1017.4 |
| 20260901114603 | 25 | 325 | 0.0 | 0.0 | 0.00 | 0.05 | 0.03 | 100 | 1017.4 |
| 20260901114055 | 25 | 313 | 0.0 | 0.0 | 0.00 | 0.05 | 0.03 | 100 | 1017.4 |
| 20260901113557 | 25 | 313 | 0.0 | 0.0 | 0.00 | 0.05 | 0.03 | 100 | 1017.2 |
| 20260901113101 | 25 | 313 | 0.0 | 0.0 | 0.00 | 0.05 | 0.03 | 100 | 1017.1 |
| 20260901112556 | 25 | 313 | 0.0 | 0.0 | 0.00 | 0.05 | 0.03 | 100 | 1017.0 |
| 20260901112054 | 25 | 314 | 0.0 | 0.0 | 0.00 | 0.05 | 0.03 | 100 | 1017.0 |
| 20260901111606 | 25 | 314 | 0.0 | 0.0 | 0.00 | 0.05 | 0.03 | 100 | 1017.0 |
| 20260901111057 | 25 | 314 | 0.0 | 0.0 | 0.00 | 0.05 | 0.03 | 100 | 1016.9 |
| 20260901110553 | 25 | 314 | 0.0 | 0.0 | 0.00 | 0.05 | 0.03 | 100 | 1016.8 |
| 20260901110054 | 25 | 314 | 0.0 | 0.0 | 0.00 | 0.05 | 0.03 | 100 | 1016.8 |
| 20260901105553 | 25 | 315 | 0.0 | 0.0 | 0.00 | 0.05 | 0.03 | 100 | 1016.7 |
| 20260901105053 | 25 | 315 | 0.0 | 0.0 | 0.00 | 0.05 | 0.03 | 100 | 1016.6 |
| 20260901104553 | 25 | 315 | 0.0 | 0.0 | 0.00 | 0.05 | 0.03 | 100 | 1016.7 |
| 20260901104053 | 25 | 315 | 0.0 | 0.0 | 0.00 | 0.05 | 0.03 | 100 | 1016.7 |
| 20260901103553 | 25 | 315 | 0.0 | 0.0 | 0.00 | 0.05 | 0.03 | 100 | 1016.7 |
| 20260901103052 | 25 | 315 | 0.0 | 0.0 | 0.00 | 0.05 | 0.03 | 100 | 1016.8 |
| 20260901102552 | 25 | 315 | 0.0 | 0.0 | 0.00 | 0.05 | 0.03 | 100 | 1016.7 |
| 20260901102053 | 25 | 315 | 0.0 | 0.0 | 0.00 | 0.05 | 0.03 | 100 | 1016.8 |
| 20260901101553 | 25 | 315 | 0.0 | 0.0 | 0.00 | 0.05 | 0.03 | 100 | 1016.7 |
| 20260901101051 | 25 | 315 | 0.0 | 0.0 | 0.00 | 0.05 | 0.03 | 100 | 1016.7 |
| 20260901100552 | 25 | 315 | 0.0 | 0.0 | 0.00 | 0.05 | 0.03 | 100 | 1016.6 |
| 20260901100055 | 25 | 315 | 0.0 | 0.0 | 0.00 | 0.05 | 0.03 | 100 | 1016.7 |
| 20260901095550 | 25 | 315 | 0.0 | 0.0 | 0.00 | 0.05 | 0.03 | 100 | 1016.7 |
| 20260901095052 | 25 | 315 | 0.0 | 0.0 | 0.00 | 0.05 | 0.03 | 100 | 1016.7 |
| 20260901094550 | 25 | 315 | 0.0 | 0.0 | 0.00 | 0.05 | 0.03 | 100 | 1016.7 |
| 20260901094051 | 25 | 315 | 0.0 | 0.0 | 0.00 | 0.05 | 0.03 | 100 | 1016.6 |
| 20260901093551 | 25 | 316 | 0.0 | 0.0 | 0.00 | 0.05 | 0.03 | 100 | 1016.7 |
| 20260901093052 | 25 | 316 | 0.0 | 0.0 | 0.00 | 0.05 | 0.03 | 100 | 1016.6 |
| 20260901092549 | 25 | 312 | 0.0 | 0.0 | 0.00 | 0.05 | 0.03 | 100 | 1016.6 |
| 20260901092049 | 25 | 312 | 0.0 | 0.0 | 0.00 | 0.05 | 0.03 | 100 | 1016.7 |
| 20260901091549 | 25 | 312 | 0.0 | 0.0 | 0.00 | 0.05 | 0.03 | 100 | 1016.6 |
| 20260901091049 | 25 | 312 | 0.0 | 0.0 | 0.00 | 0.05 | 0.03 | 100 | 1016.6 |
| 20260901090552 | 25 | 311 | 0.0 | 0.0 | 0.00 | 0.05 | 0.03 | 100 | 1016.7 |
| 20260901090048 | 25 | 309 | 0.0 | 0.0 | 0.00 | 0.05 | 0.03 | 100 | 1016.6 |
| 20260901085548 | 25 | 309 | 0.0 | 0.0 | 0.00 | 0.05 | 0.03 | 100 | 1016.7 |
| 20260901085048 | 25 | 309 | 0.0 | 0.0 | 0.00 | 0.05 | 0.03 | 100 | 1016.7 |
| 20260901084548 | 25 | 309 | 0.0 | 0.0 | 0.00 | 0.05 | 0.03 | 100 | 1016.5 |
| 20260901084052 | 25 | 309 | 0.0 | 0.0 | 0.00 | 0.05 | 0.03 | 100 | 1016.6 |
| 20260901083547 | 25 | 308 | 0.0 | 0.0 | 0.00 | 0.05 | 0.03 | 100 | 1016.5 |
| 20260901083048 | 25 | 309 | 0.0 | 0.0 | 0.00 | 0.05 | 0.03 | 100 | 1016.6 |